Weather History for Reno - Stead, NV

Change the Weather History Date:

Monday, February 17, 2014

  Actual Average (KRNO) Record (KRNO)
Temperature  
Mean Temperature 39 °F 40 °F  
Max Temperature 55 °F 52 °F 71 °F (1930)
Min Temperature 23 °F 29 °F 0 °F (1894)
Degree Days  
Heating Degree Days 26 25  
Month to date heating degree days 446  
Since 1 July heating degree days 3383  
Cooling Degree Days 0 0  
Month to date cooling degree days 0  
Year to date cooling degree days 0  
Moisture  
Dew Point 15 °F    
Average Humidity 40    
Maximum Humidity 80    
Minimum Humidity 14    
Precipitation  
Precipitation 0.00 in 0.04 in 0.96 in (1986)
Month to date precipitation 0.58  
Year to date precipitation 1.61  
Snow  
Snow 0.00 in 0.20 in 7.10 in (1917)
Month to date snowfall 2.9  
Since 1 July snowfall 16.9  
Snow Depth -    
Sea Level Pressure  
Sea Level Pressure 30.08 in    
Wind  
Wind Speed 8 mph (WNW)    
Max Wind Speed 21 mph    
Max Gust Speed 29 mph    
Visibility 10 miles    
Events      
T = Trace of Precipitation, MM = Missing Value Source: NWS Daily Summary

Daily Weather History Graph

Daily Weather History Graph

Search for Another Location

Airport:

Trip Planner

Search our weather history database for the weather conditions in past years. The results will help you decide how hot, cold, wet, or windy it might be!

Date:

Astronomy

Feb. 17, 2014 Rise Set
Actual Time 6:49 AM PST 5:38 PM PST
Civil Twilight 6:21 AM PST 6:05 PM PST
Nautical Twilight 5:50 AM PST 6:37 PM PST
Astronomical Twilight 5:18 AM PST 7:08 PM PST
Moon 8:37 PM PST (2/17) 7:52 AM PST (2/17)
Length of Visible Light 11h 44m
Length of Day
10h 49m
Waning Gibbous, 93% of the Moon is Illuminated
Feb 17
Waning Gibbous
Feb 22
Last Quarter
Mar 1
New
Mar 8
First Quarter
Mar 16
Full

Hourly Weather History & Observations

Time (PST) Temp. Windchill Dew Point Humidity Pressure Visibility Wind Dir Wind Speed Gust Speed Precip Events Conditions
12:15 AM 24.8 °F 20.5 °F 19.4 °F 80% 30.13 in 10.0 mi North 3.5 mph - N/A   Clear
12:35 AM 24.8 °F 19.1 °F 19.4 °F 80% 30.13 in 10.0 mi North 4.6 mph - N/A   Clear
12:55 AM 24.8 °F 17.9 °F 19.4 °F 80% 30.12 in 10.0 mi North 5.8 mph - N/A   Clear
1:15 AM 24.8 °F - 19.4 °F 80% 30.11 in 10.0 mi Calm Calm - N/A   Clear
1:35 AM 23.0 °F 15.8 °F 17.6 °F 80% 30.10 in 10.0 mi NNW 5.8 mph - N/A   Clear
1:55 AM 23.0 °F 14.7 °F 17.6 °F 80% 30.10 in 10.0 mi North 6.9 mph - N/A   Clear
2:15 AM 26.6 °F 20.0 °F 19.4 °F 74% 30.10 in 10.0 mi NW 5.8 mph - N/A   Clear
2:35 AM 23.0 °F 15.8 °F 17.6 °F 80% 30.09 in 10.0 mi North 5.8 mph - N/A   Clear
2:55 AM 24.8 °F 16.9 °F 17.6 °F 74% 30.09 in 10.0 mi NNW 6.9 mph - N/A   Clear
3:15 AM 26.6 °F 21.2 °F 17.6 °F 69% 30.09 in 10.0 mi NW 4.6 mph - N/A   Clear
3:35 AM 28.4 °F 23.3 °F 17.6 °F 64% 30.09 in 10.0 mi NNW 4.6 mph - N/A   Clear
3:55 AM 32.0 °F 22.5 °F 17.6 °F 55% 30.09 in 10.0 mi NW 12.7 mph - N/A   Clear
4:15 AM 37.4 °F 28.9 °F 14.0 °F 38% 30.09 in 10.0 mi NW 13.8 mph - N/A   Clear
4:35 AM 30.2 °F 22.6 °F 15.8 °F 55% 30.09 in 10.0 mi NNW 8.1 mph - N/A   Clear
4:55 AM 33.8 °F 27.0 °F 14.0 °F 44% 30.09 in 10.0 mi North 8.1 mph - N/A   Clear
5:15 AM 35.6 °F 28.6 °F 10.4 °F 35% 30.08 in 10.0 mi North 9.2 mph - N/A   Clear
5:35 AM 35.6 °F 28.0 °F 10.4 °F 35% 30.07 in 10.0 mi North 10.4 mph - N/A   Clear
5:55 AM 37.4 °F 34.9 °F 8.6 °F 30% 30.06 in 10.0 mi NNW 3.5 mph - N/A   Clear
6:15 AM 30.2 °F 24.3 °F 14.0 °F 51% 30.07 in 10.0 mi North 5.8 mph - N/A   Clear
6:35 AM 32.0 °F 26.4 °F 10.4 °F 41% 30.06 in 10.0 mi North 5.8 mph - N/A   Clear
6:55 AM 32.0 °F - 10.4 °F 41% 30.07 in 10.0 mi Calm Calm - N/A   Clear
7:15 AM 32.0 °F - 8.6 °F 38% 30.07 in 10.0 mi Calm Calm - N/A   Clear
7:35 AM 37.4 °F 32.1 °F 6.8 °F 28% 30.07 in 10.0 mi East 6.9 mph - N/A   Clear
7:55 AM 35.6 °F - 10.4 °F 35% 30.07 in 10.0 mi Calm Calm - N/A   Clear
8:15 AM 37.4 °F - 10.4 °F 33% 30.07 in 10.0 mi Calm Calm - N/A   Clear
8:35 AM 39.2 °F 35.0 °F 14.0 °F 36% 30.08 in 10.0 mi East 5.8 mph - N/A   Clear
8:55 AM 44.6 °F 43.1 °F 6.8 °F 21% 30.08 in 10.0 mi SE 3.5 mph - N/A   Clear
9:15 AM 46.4 °F 44.3 °F 5.0 °F 18% 30.07 in 10.0 mi SE 4.6 mph - N/A   Clear
9:35 AM 48.2 °F - 1.4 °F 15% 30.07 in 10.0 mi SSE 6.9 mph - N/A   Clear
9:55 AM 50.0 °F - 3.2 °F 15% 30.07 in 10.0 mi Calm Calm - N/A   Clear
10:15 AM 50.0 °F - 1.4 °F 14% 30.07 in 10.0 mi SW 8.1 mph - N/A   Clear
10:35 AM 50.0 °F - 5.0 °F 16% 30.08 in 10.0 mi WSW 16.1 mph 21.9 mph N/A   Clear
10:55 AM 50.0 °F - 6.8 °F 17% 30.08 in 10.0 mi West 12.7 mph - N/A   Clear
11:15 AM 50.0 °F - 10.4 °F 20% 30.08 in 10.0 mi NW 13.8 mph - N/A   Clear
11:35 AM 48.2 °F - 14.0 °F 25% 30.08 in 10.0 mi NNW 12.7 mph - N/A   Clear
11:55 AM 50.0 °F - 12.2 °F 22% 30.07 in 10.0 mi West 8.1 mph - N/A   Clear
12:15 PM 51.8 °F - 14.0 °F 22% 30.06 in 10.0 mi WSW 8.1 mph - N/A   Clear
12:35 PM 53.6 °F - 14.0 °F 21% 30.06 in 10.0 mi West 15.0 mph 19.6 mph N/A   Clear
12:55 PM 55.4 °F - 14.0 °F 20% 30.05 in 10.0 mi West 18.4 mph 26.5 mph N/A   Clear
1:15 PM 55.4 °F - 14.0 °F 20% 30.04 in 10.0 mi WNW 20.7 mph 26.5 mph N/A   Clear
1:35 PM 55.4 °F - 14.0 °F 20% 30.04 in 10.0 mi West 20.7 mph 25.3 mph N/A   Clear
1:55 PM 55.4 °F - 10.4 °F 17% 30.04 in 10.0 mi WNW 20.7 mph 26.5 mph N/A   Clear
2:15 PM 53.6 °F - 14.0 °F 21% 30.04 in 10.0 mi WNW 19.6 mph 26.5 mph N/A   Clear
2:35 PM 53.6 °F - 15.8 °F 22% 30.04 in 10.0 mi WSW 18.4 mph 28.8 mph N/A   Clear
2:55 PM 53.6 °F - 15.8 °F 22% 30.04 in 10.0 mi WSW 18.4 mph 24.2 mph N/A   Clear
3:15 PM 53.6 °F - 14.0 °F 21% 30.05 in 10.0 mi West 12.7 mph 24.2 mph N/A   Clear
3:35 PM 51.8 °F - 15.8 °F 24% 30.05 in 10.0 mi WSW 11.5 mph - N/A   Clear
3:55 PM 50.0 °F - 15.8 °F 26% 30.05 in 10.0 mi WSW 15.0 mph 20.7 mph N/A   Clear
4:15 PM 51.8 °F - 15.8 °F 24% 30.05 in 10.0 mi West 10.4 mph 17.3 mph N/A   Clear
4:35 PM 50.0 °F - 15.8 °F 26% 30.05 in 10.0 mi West 13.8 mph - N/A   Clear
4:55 PM 48.2 °F - 15.8 °F 27% 30.05 in 10.0 mi West 11.5 mph - N/A   Clear
5:15 PM 48.2 °F - 15.8 °F 27% 30.06 in 10.0 mi West 12.7 mph 18.4 mph N/A   Clear
5:35 PM 46.4 °F 42.4 °F 15.8 °F 29% 30.07 in 10.0 mi WNW 8.1 mph - N/A   Clear
5:55 PM 44.6 °F 39.7 °F 15.8 °F 31% 30.07 in 10.0 mi NW 9.2 mph - N/A   Clear
6:15 PM 44.6 °F 38.4 °F 14.0 °F 29% 30.07 in 10.0 mi WNW 12.7 mph - N/A   Clear
6:35 PM 44.6 °F 38.8 °F 15.8 °F 31% 30.07 in 10.0 mi WNW 11.5 mph - N/A   Clear
6:55 PM 44.6 °F 38.4 °F 15.8 °F 31% 30.07 in 10.0 mi WNW 12.7 mph - N/A   Clear
7:15 PM 41.0 °F 33.5 °F 17.6 °F 39% 30.09 in 10.0 mi WNW 13.8 mph - N/A   Clear
7:35 PM 41.0 °F 33.9 °F 19.4 °F 42% 30.09 in 10.0 mi WNW 12.7 mph - N/A   Clear
7:55 PM 39.2 °F 33.6 °F 19.4 °F 45% 30.10 in 10.0 mi West 8.1 mph - N/A   Clear
8:15 PM 39.2 °F 35.0 °F 19.4 °F 45% 30.11 in 10.0 mi North 5.8 mph - N/A   Clear
8:35 PM 39.2 °F 35.0 °F 21.2 °F 49% 30.10 in 10.0 mi West 5.8 mph - N/A   Clear
8:55 PM 39.2 °F 31.6 °F 21.2 °F 49% 30.11 in 10.0 mi WNW 12.7 mph - N/A   Clear
9:15 PM 39.2 °F 31.6 °F 21.2 °F 49% 30.12 in 10.0 mi WNW 12.7 mph - N/A   Clear
9:35 PM 39.2 °F 31.6 °F 19.4 °F 45% 30.13 in 10.0 mi WNW 12.7 mph - N/A   Clear
9:55 PM 39.2 °F 33.0 °F 19.4 °F 45% 30.13 in 10.0 mi West 9.2 mph - N/A   Clear
10:15 PM 37.4 °F 30.3 °F 21.2 °F 52% 30.13 in 10.0 mi West 10.4 mph - N/A   Clear
10:35 PM 35.6 °F 27.5 °F 21.2 °F 56% 30.13 in 10.0 mi WSW 11.5 mph - N/A   Clear
10:55 PM 35.6 °F 28.6 °F 19.4 °F 52% 30.14 in 10.0 mi West 9.2 mph - N/A   Clear
11:15 PM 33.8 °F 25.3 °F 19.4 °F 56% 30.14 in 10.0 mi West 11.5 mph - N/A   Clear
11:35 PM 32.0 °F 28.7 °F 17.6 °F 55% 30.14 in 10.0 mi West 3.5 mph - N/A   Clear
11:55 PM 32.0 °F 28.7 °F 15.8 °F 51% 30.14 in 10.0 mi West 3.5 mph - N/A   Clear